NULL Weather Reports


Display with metric or nautical units.
time (UTC)temp
F
wind
direction
speed
MPH
gust
MPH
rain 1hr
in
rain 24hr
in
rain mn
in
humidity
%
barometer
mb
20260831131535 69 151 0.0 0.0 0.00 0.00 0.00 91 1011.4
20260831131515 78 167 4.0 12.0 0.00 0.00 0.00 64 1011.4
20260831130034 69 151 0.0 0.0 0.00 0.00 0.00 90 1011.4
20260831130016 78 205 7.0 11.0 0.00 0.00 0.00 64 1011.5
20260831124522 69 151 0.0 0.0 0.00 0.00 0.00 90 1011.3
20260831124513 78 227 4.0 10.0 0.00 0.00 0.00 64 1011.4
20260831123020 69 151 0.0 0.0 0.00 0.00 0.00 89 1011.3
20260831123008 77 203 4.0 10.0 0.00 0.00 0.00 65 1011.1
20260831121519 70 151 0.0 0.0 0.00 0.00 0.00 89 1011.2
20260831121508 77 235 2.0 9.0 0.00 0.00 0.00 65 1011.1
20260831120021 70 151 0.0 0.0 0.00 0.00 0.00 89 1011.3
20260831120013 77 359 4.0 8.0 0.00 0.00 0.00 64 1010.7
20260831114516 70 151 0.0 0.0 0.00 0.00 0.00 89 1011.2
20260831114502 77 359 2.0 7.0 0.00 0.00 0.00 64 1010.6
20260831113015 70 151 0.0 0.0 0.00 0.00 0.00 88 1011.3
20260831113002 77 359 3.0 8.0 0.00 0.00 0.00 63 1010.4
20260831111613 78 244 3.0 7.0 0.00 0.00 0.00 63 1010.5
20260831111516 71 151 0.0 0.0 0.00 0.00 0.00 88 1011.5
20260831110137 78 172 3.0 7.0 0.00 0.00 0.00 62 1010.5
20260831110012 71 151 0.0 0.0 0.00 0.00 0.00 89 1011.4
20260831104556 78 172 3.0 8.0 0.00 0.00 0.00 61 1010.4
20260831104512 71 151 0.0 0.0 0.00 0.00 0.00 89 1011.4
20260831103059 79 206 3.0 8.0 0.00 0.00 0.00 61 1010.2
20260831103010 71 151 0.0 0.0 0.00 0.00 0.00 89 1011.5
20260831101551 79 202 2.0 7.0 0.00 0.00 0.00 60 1010.1
20260831101510 71 151 0.0 0.0 0.00 0.00 0.00 88 1011.3
20260831100100 79 222 2.0 6.0 0.00 0.00 0.00 60 1010.1
20260831100007 71 151 0.0 0.0 0.00 0.00 0.00 88 1011.3
20260831094548 80 232 1.0 7.0 0.00 0.00 0.00 59 1009.9
20260831094507 71 149 0.0 0.0 0.00 0.00 0.00 88 1011.3
20260831093045 80 202 4.0 9.0 0.00 0.00 0.00 58 1009.7
20260831093006 72 149 0.0 0.0 0.00 0.00 0.00 88 1011.4
20260831091550 80 126 4.0 10.0 0.00 0.00 0.00 58 1009.7
20260831091504 72 149 0.0 0.0 0.00 0.00 0.00 87 1011.3
20260831090042 80 194 0.0 8.0 0.00 0.00 0.00 58 1009.5
20260831090004 72 156 0.0 0.0 0.00 0.00 0.00 87 1011.2
20260831084550 80 208 1.0 6.0 0.00 0.00 0.00 57 1009.6
20260831084508 72 155 0.0 0.0 0.00 0.00 0.00 86 1011.3
20260831083046 81 156 3.0 9.0 0.00 0.00 0.00 56 1009.4
20260831083001 73 155 0.0 0.0 0.00 0.00 0.00 85 1011.3
20260831081604 73 155 0.0 0.0 0.00 0.00 0.00 85 1011.4
20260831081548 81 190 2.0 5.0 0.00 0.00 0.00 55 1009.3
20260831080058 73 153 0.0 0.0 0.00 0.00 0.00 83 1011.5
20260831080035 82 183 5.0 10.0 0.00 0.00 0.00 55 1009.4
20260831074557 73 155 0.0 0.0 0.00 0.00 0.00 82 1011.6
20260831074541 82 177 2.0 8.0 0.00 0.00 0.00 54 1009.3
20260831073100 82 197 1.0 4.0 0.00 0.00 0.00 55 1009.2
20260831073056 72 155 0.0 0.0 0.00 0.00 0.00 76 1011.6
20260831071556 72 155 0.0 0.0 0.00 0.00 0.00 74 1011.3
20260831071531 83 186 1.0 4.0 0.00 0.00 0.00 54 1009.2
20260831070052 72 155 0.0 0.0 0.00 0.00 0.00 74 1011.4
20260831070032 83 147 1.0 5.0 0.00 0.00 0.00 53 1009.2
20260831064549 72 155 0.0 0.0 0.00 0.00 0.00 73 1011.3
20260831064536 84 170 1.0 7.0 0.00 0.00 0.00 52 1009.2
20260831063049 73 155 0.0 0.0 0.00 0.00 0.00 72 1011.2
20260831063023 84 186 1.0 6.0 0.00 0.00 0.00 51 1009.1
20260831061549 73 155 0.0 0.0 0.00 0.00 0.00 72 1011.1
20260831061531 85 155 2.0 9.0 0.00 0.00 0.00 50 1009.0
20260831060051 73 155 0.0 0.0 0.00 0.00 0.00 71 1011.1
20260831060018 85 159 4.0 9.0 0.00 0.00 0.00 50 1008.9
20260831054548 73 155 0.0 0.0 0.00 0.00 0.00 71 1011.2
20260831054517 85 153 2.0 8.0 0.00 0.00 0.00 50 1008.7
20260831053047 74 155 0.0 0.0 0.00 0.00 0.00 72 1011.2
20260831053021 86 160 3.0 9.0 0.00 0.00 0.00 50 1008.6
20260831051555 75 155 0.0 0.0 0.00 0.00 0.00 78 1011.2
20260831051515 86 183 3.0 7.0 0.00 0.00 0.00 50 1008.4
20260831050046 75 155 0.0 0.0 0.00 0.00 0.00 77 1011.3
20260831050031 86 224 4.0 12.0 0.00 0.00 0.00 49 1008.3
20260831044545 75 155 0.0 0.0 0.00 0.00 0.00 73 1011.3
20260831044510 87 203 6.0 12.0 0.00 0.00 0.00 48 1008.2
20260831043044 75 155 0.0 0.0 0.00 0.00 0.00 72 1011.3
20260831043013 88 162 3.0 16.0 0.00 0.00 0.00 47 1008.2
20260831041546 75 155 0.0 0.0 0.00 0.00 0.00 74 1011.1
20260831041509 88 195 10.0 17.0 0.00 0.00 0.00 47 1008.2
20260831040043 75 155 0.0 0.0 0.00 0.00 0.00 75 1010.9
20260831040027 88 228 5.0 15.0 0.00 0.00 0.00 46 1008.1
20260831034549 76 155 0.0 0.0 0.00 0.00 0.00 78 1010.6
20260831034508 88 223 5.0 16.0 0.00 0.00 0.00 46 1008.1
20260831033042 76 155 0.0 0.0 0.00 0.00 0.00 81 1010.2
20260831033012 88 213 4.0 14.0 0.00 0.00 0.00 46 1008.2
20260831031543 76 155 0.0 0.0 0.00 0.00 0.00 81 1010.1
20260831031507 88 186 6.0 14.0 0.00 0.00 0.00 47 1008.1
20260831030041 76 153 0.0 0.0 0.00 0.00 0.00 80 1009.7
20260831030019 88 200 5.0 12.0 0.00 0.00 0.00 47 1008.1
20260831024541 76 150 0.0 0.0 0.00 0.00 0.00 76 1009.7
20260831024509 88 179 3.0 11.0 0.00 0.00 0.00 47 1008.0
20260831023040 76 152 0.0 0.0 0.00 0.00 0.00 74 1009.7
20260831023007 89 154 6.0 14.0 0.00 0.00 0.00 46 1007.9
20260831021540 76 132 0.0 0.0 0.00 0.00 0.00 74 1009.4
20260831021506 89 134 6.0 10.0 0.00 0.00 0.00 47 1007.7
20260831020040 77 154 0.0 0.0 0.00 0.00 0.00 74 1009.6
20260831020005 89 172 4.0 12.0 0.00 0.00 0.00 47 1007.6
20260831014538 78 160 0.0 0.0 0.00 0.00 0.00 73 1009.7
20260831014505 89 194 4.0 10.0 0.00 0.00 0.00 48 1007.4
20260831013038 78 157 0.0 0.0 0.00 0.00 0.00 72 1009.6
20260831013004 90 156 4.0 9.0 0.00 0.00 0.00 47 1007.2
20260831011544 79 142 0.0 1.0 0.00 0.00 0.00 73 1009.5
20260831011505 91 151 3.0 7.0 0.00 0.00 0.00 47 1007.1
20260831010042 80 135 0.0 0.0 0.00 0.00 0.00 74 1009.4
20260831010005 92 143 3.0 8.0 0.00 0.00 0.00 46 1006.9
20260831004536 81 150 0.0 0.0 0.00 0.00 0.00 72 1009.5
20260831004503 93 148 4.0 10.0 0.00 0.00 0.00 45 1006.9
20260831003038 82 156 0.0 1.0 0.00 0.00 0.00 72 1009.5
20260831003006 94 158 5.0 10.0 0.00 0.00 0.00 44 1006.9
20260831001535 83 131 0.0 2.0 0.00 0.00 0.00 69 1009.5
20260831001503 95 138 2.0 6.0 0.00 0.00 0.00 43 1006.9
20260831000036 83 138 0.0 1.0 0.00 0.00 0.00 68 1009.5
20260831000005 96 135 3.0 7.0 0.00 0.00 0.00 42 1006.8
20260830234540 83 155 0.0 0.0 0.00 0.00 0.00 67 1009.4
20260830234503 96 162 6.0 12.0 0.00 0.00 0.00 41 1006.7
20260830233033 84 148 0.0 0.0 0.00 0.00 0.00 65 1009.4
20260830233002 97 166 7.0 14.0 0.00 0.00 0.00 41 1006.7
20260830231601 97 125 6.0 14.0 0.00 0.00 0.00 41 1006.7
20260830231532 85 146 0.0 1.0 0.00 0.00 0.00 64 1009.4
20260830230056 97 154 7.0 17.0 0.00 0.00 0.00 41 1006.6
20260830230032 85 154 0.0 0.0 0.00 0.00 0.00 64 1009.7
20260830224551 98 149 9.0 15.0 0.00 0.00 0.00 41 1006.5
20260830224531 85 101 0.0 0.0 0.00 0.00 0.00 60 1009.7
20260830223048 98 216 5.0 10.0 0.00 0.00 0.00 42 1006.6
20260830223028 85 161 0.0 0.0 0.00 0.00 0.00 62 1009.9
20260830221537 85 150 0.0 0.0 0.00 0.00 0.00 65 1010.1
20260830221535 98 189 8.0 19.0 0.00 0.00 0.00 41 1006.6
20260830220043 98 215 7.0 16.0 0.00 0.00 0.00 42 1006.7
20260830220025 85 84 0.0 0.0 0.00 0.00 0.00 65 1010.2
20260830214523 84 142 0.0 1.0 0.00 0.00 0.00 66 1010.6
20260830214518 98 164 6.0 18.0 0.00 0.00 0.00 42 1006.7
20260830213022 85 164 0.0 0.0 0.00 0.00 0.00 69 1010.7
20260830213017 98 163 4.0 18.0 0.00 0.00 0.00 42 1006.8
20260830211521 85 130 0.0 0.0 0.00 0.00 0.00 69 1010.8
20260830211507 97 204 12.0 18.0 0.00 0.00 0.00 41 1006.9
20260830210058 97 191 10.0 17.0 0.00 0.00 0.00 42 1007.1
20260830210021 86 156 0.0 0.0 0.00 0.00 0.00 67 1010.9
20260830204557 97 35 10.0 19.0 0.00 0.00 0.00 43 1007.4
20260830204520 85 142 0.0 0.0 0.00 0.00 0.00 69 1011.0
20260830203040 97 153 11.0 20.0 0.00 0.00 0.00 43 1007.3
20260830203023 85 144 0.0 1.0 0.00 0.00 0.00 70 1011.2
20260830201531 96 255 7.0 18.0 0.00 0.00 0.00 44 1007.6
20260830201517 85 123 0.0 0.0 0.00 0.00 0.00 70 1011.3
20260830200122 96 95 8.0 21.0 0.00 0.00 0.00 45 1007.9
20260830200037 85 150 0.0 0.0 0.00 0.00 0.00 70 1011.3
20260830194516 96 194 10.0 18.0 0.00 0.00 0.00 44 1008.1
20260830193015 86 181 0.0 1.0 0.00 0.00 0.00 68 1011.3
20260830193013 95 64 10.0 18.0 0.00 0.00 0.00 46 1008.2
20260830191530 94 168 6.0 18.0 0.00 0.00 0.00 48 1008.3
20260830191513 86 162 0.0 1.0 0.00 0.00 0.00 67 1011.3
20260830190030 87 139 0.0 0.0 0.00 0.00 0.00 68 1011.4
20260830190003 93 123 8.0 23.0 0.00 0.00 0.00 48 1008.4
20260830184600 93 243 11.0 23.0 0.00 0.00 0.00 48 1008.5
20260830184511 87 169 0.0 0.0 0.00 0.00 0.00 67 1011.4
20260830183055 93 143 9.0 15.0 0.00 0.00 0.00 49 1008.6
20260830183009 86 128 0.0 0.0 0.00 0.00 0.00 67 1011.7
20260830181552 92 214 6.0 16.0 0.00 0.00 0.00 50 1008.8
20260830181507 86 157 0.0 0.0 0.00 0.00 0.00 67 1011.5
20260830180053 91 189 9.0 19.0 0.00 0.00 0.00 51 1008.9
20260830180004 85 148 0.0 0.0 0.00 0.00 0.00 68 1011.4
20260830174554 91 223 10.0 15.0 0.00 0.00 0.00 51 1008.9
20260830174502 84 157 0.0 0.0 0.00 0.00 0.00 69 1011.5
20260830173101 83 139 0.0 0.0 0.00 0.00 0.00 71 1011.5
20260830173049 90 267 8.0 20.0 0.00 0.00 0.00 52 1008.9
20260830171556 82 147 0.0 0.0 0.00 0.00 0.00 73 1011.5
20260830171542 89 179 10.0 23.0 0.00 0.00 0.00 52 1009.1
20260830170053 82 132 0.0 0.0 0.00 0.00 0.00 75 1011.4
20260830170038 89 170 7.0 17.0 0.00 0.00 0.00 53 1009.3
20260830164558 80 127 0.0 0.0 0.00 0.00 0.00 78 1011.6
20260830164535 87 244 10.0 23.0 0.00 0.00 0.00 54 1009.3
20260830163046 78 144 0.0 0.0 0.00 0.00 0.00 81 1011.4
20260830163039 87 204 10.0 20.0 0.00 0.00 0.00 56 1009.5
20260830161549 77 145 0.0 0.0 0.00 0.00 0.00 82 1011.4
20260830161530 86 171 12.0 24.0 0.00 0.00 0.00 57 1009.5
20260830160042 76 120 0.0 0.0 0.00 0.00 0.00 84 1011.3
20260830160036 85 210 11.0 22.0 0.00 0.00 0.00 56 1009.4
20260830154535 76 138 0.0 0.0 0.00 0.00 0.00 85 1011.4
20260830154526 84 149 11.0 17.0 0.00 0.00 0.00 57 1009.5
20260830153031 75 138 0.0 0.0 0.00 0.00 0.00 87 1011.4
20260830153023 84 138 5.0 11.0 0.00 0.00 0.00 58 1009.7
20260830151530 74 141 0.0 0.0 0.00 0.00 0.00 88 1011.5
20260830151521 83 216 5.0 19.0 0.00 0.00 0.00 58 1009.4
20260830150028 74 153 0.0 0.0 0.00 0.00 0.00 90 1011.4
20260830150024 83 154 8.0 22.0 0.00 0.00 0.00 57 1009.3
20260830144531 73 136 0.0 0.0 0.00 0.00 0.00 91 1011.4
20260830144524 82 184 9.0 20.0 0.00 0.00 0.00 58 1009.2
20260830143027 72 137 0.0 0.0 0.00 0.00 0.00 91 1011.3
20260830143019 81 203 7.0 14.0 0.00 0.00 0.00 59 1009.2
20260830141525 71 156 0.0 0.0 0.00 0.00 0.00 91 1011.2
20260830141519 80 333 13.0 22.0 0.00 0.00 0.00 60 1009.3
20260830140026 71 156 0.0 0.0 0.00 0.00 0.00 90 1011.2
20260830140019 80 170 8.0 15.0 0.00 0.00 0.00 61 1009.5
20260830134531 70 156 0.0 0.0 0.00 0.00 0.00 90 1011.1
20260830134518 79 185 7.0 11.0 0.00 0.00 0.00 61 1009.5
20260830133021 70 156 0.0 0.0 0.00 0.00 0.00 89 1010.9
20260830133017 79 191 6.0 14.0 0.00 0.00 0.00 60 1009.6